{"data":{"norad_id":49289,"epoch":"2026-09-19T22:27:29.561184Z","epoch_age_seconds":74511,"freshness":"FRESH","line1":"1 49289U 21090L   26262.93575881  .00000129  00000+0  28504-3 0  9991","line2":"2 49289  87.9142 255.5371 0002284  91.2266 268.9129 13.20771464242814","mean_motion":13.20771464,"eccentricity":0.0002284,"inclination_deg":87.9142,"raan_deg":255.5371,"arg_perigee_deg":91.2266,"mean_anomaly_deg":268.9129,"bstar":0.00028504,"rev_number":24281,"period_min":109.02718897628,"perigee_km":1180.0480203962,"apogee_km":1183.5013880627,"semimajor_km":7559.9117042294,"source":"CELESTRAK","updated_at":"2026-09-20T09:00:44.670663Z"}}